Kuchera_Ratio
0.4 10.1 13.3 11.0 8.4 9.9 13.0 14.9 16.0 12.1 5.0 9.0 11.5 10.1 3.5 0.0 0.0 0.0 0.0 0.0 0.0 0.0 0.0 0.0 0.0 0.0 0.0 0.0 0.0 0.0 0.0 0.0 0.0 0.0 0.0 0.0 0.0 0.0 0.0 0.0 0.0 0.0 0.0 0.0
8.1 13.6 6.9 6.1 7.7 11.6 13.0 15.6 15.9 11.8 6.6 8.6 11.2 11.9 3.9 0.0 0.0 0.0 0.0 0.0 0.0 0.0 0.0 0.0 0.0 0.0 0.0 0.0 0.0 0.0 0.0 0.0 0.0 0.0 0.0 0.0 0.0 0.0 0.0 0.0 0.0 0.0 0.0 0.0
14.3 10.7 5.6 9.6 12.1 14.1 13.6 15.5 15.4 15.6 11.0 8.2 12.2 13.7 8.3 0.0 0.0 0.0 0.0 0.0 0.0 0.0 0.0 0.0 0.0 0.0 0.0 0.0 0.0 0.0 0.0 0.0 0.0 0.0 0.0 0.0 0.0 0.0 0.0 0.0 0.0 0.0 0.0 0.0
12.4 5.5 10.3 12.1 13.3 12.3 17.6 10.0 12.9 14.5 16.2 20.0 10.4 21.4 12.3 4.4 1.2 0.0 0.0 0.0 0.0 0.0 0.0 0.0 0.0 0.0 0.0 0.0 0.0 0.0 0.0 0.0 0.0 0.0 0.0 0.0 0.0 0.0 0.0 0.0 0.0 0.0 0.0 0.0
14.0 12.5 13.0 14.2 13.4 10.8 15.5 10.2 12.8 14.3 17.0 17.8 16.5 20.3 14.8 5.9 8.2 1.3 0.0 0.0 0.0 0.0 0.0 0.0 0.0 0.0 0.0 0.0 0.0 0.0 0.0 0.0 0.0 0.0 0.0 0.0 0.0 0.0 0.0 0.0 0.0 0.0 0.0 0.0
11.2 4.3 10.2 11.7 9.5 9.6 8.5 13.5 12.8 13.1 15.3 21.7 17.3 18.0 15.5 11.7 7.1 0.0 0.0 0.0 0.0 0.0 0.0 0.0 0.0 0.0 0.0 0.0 0.0 0.0 0.0 0.0 0.0 0.0 0.0 0.0 0.0 0.0 0.0 0.0 0.0 0.0 0.0 0.0
13.1 12.0 7.6 9.9 14.5 8.9 12.5 16.5 21.5 21.6 22.0 21.9 13.9 17.6 15.3 12.5 2.9 0.0 0.0 0.0 0.0 0.0 0.0 0.0 0.0 0.0 0.0 0.0 0.0 0.0 0.0 0.0 0.0 0.0 0.0 0.0 0.0 0.0 0.0 0.0 0.0 0.0 0.0 0.0
19.1 19.4 12.7 8.0 13.3 16.4 15.6 17.3 22.2 26.8 23.4 20.9 13.8 20.1 16.8 11.4 3.8 0.3 0.0 0.0 0.0 0.0 0.0 0.0 0.0 0.0 0.0 0.0 0.0 0.0 0.0 0.0 0.0 0.0 0.0 0.0 0.0 0.0 0.0 0.0 0.0 0.0 0.0 0.0
19.8 17.7 8.6 7.6 8.2 13.0 15.8 18.9 14.8 20.4 18.1 20.7 17.0 16.5 12.2 11.7 10.9 7.7 3.0 0.0 0.0 0.0 0.0 0.0 0.0 0.0 0.0 0.0 0.0 0.0 0.0 0.0 0.0 0.0 0.0 0.0 0.0 0.0 0.0 0.0 0.0 0.0 0.0 0.0
16.7 21.0 12.2 10.1 8.8 10.5 14.1 13.4 20.8 19.4 25.2 24.8 17.8 19.7 20.7 17.5 15.7 12.4 8.4 1.1 0.0 0.0 0.0 0.0 0.0 0.0 0.0 0.0 0.0 0.0 0.0 0.0 0.0 0.0 0.0 0.0 0.0 0.0 0.0 0.0 0.0 0.0 0.0 0.0
15.0 18.0 15.6 12.0 15.6 18.5 17.2 19.5 18.2 18.3 19.7 23.4 23.4 20.3 16.1 17.5 16.3 15.3 12.4 0.0 0.0 0.0 0.0 0.0 0.0 0.0 0.0 0.0 0.0 0.0 0.0 0.0 0.0 0.0 0.0 0.0 0.0 0.0 0.0 0.0 0.0 0.0 0.0 0.0
15.1 16.8 20.5 17.0 13.4 12.6 15.4 18.8 18.8 22.2 22.5 20.0 21.1 19.8 14.1 15.8 15.8 13.9 12.7 3.7 0.0 0.0 0.0 0.0 0.0 0.0 0.0 0.0 0.0 0.0 0.0 0.0 0.0 0.0 0.0 0.0 0.0 0.0 0.0 0.0 0.0 0.0 0.0 0.0
13.8 17.0 21.1 17.8 16.3 13.4 18.0 18.3 18.0 17.7 17.8 22.6 24.0 22.2 15.3 15.3 15.4 14.3 13.5 11.0 0.0 0.0 0.0 0.0 0.0 0.0 0.0 0.0 0.0 0.0 0.0 0.0 0.0 0.0 0.0 0.0 0.0 0.0 0.0 0.0 0.0 0.0 0.0 0.0
10.6 16.3 19.5 22.2 20.1 17.1 19.9 19.4 18.7 19.4 22.4 22.5 22.2 22.8 18.8 18.4 16.8 15.1 14.2 12.2 6.4 2.2 0.0 0.0 0.0 0.0 0.0 0.0 0.0 0.0 0.0 0.0 0.0 0.0 0.0 0.0 0.0 0.0 0.0 0.0 0.0 0.0 0.0 0.0
14.6 19.7 16.1 16.4 16.3 17.1 18.8 20.3 19.9 21.0 21.0 23.2 22.7 22.3 20.0 18.8 16.8 14.6 14.1 12.8 10.5 7.3 4.7 1.6 0.0 0.0 0.0 0.0 0.0 0.0 0.0 0.0 0.0 0.0 0.0 0.0 0.0 0.0 0.0 0.0 0.0 0.0 0.0 0.0
13.2 18.4 17.5 18.9 15.3 16.0 18.7 18.8 19.3 19.7 19.7 20.0 20.9 21.3 17.5 16.5 14.9 14.4 14.8 13.7 13.0 10.9 7.8 5.2 2.4 0.0 0.0 0.0 0.0 0.0 0.0 0.0 0.0 0.0 0.0 0.0 0.0 0.0 0.0 0.0 0.0 0.0 0.0 0.0
16.7 17.5 19.4 19.5 15.8 16.3 19.7 20.7 20.3 19.9 18.7 20.5 23.7 20.7 17.6 17.5 16.0 14.5 14.8 14.0 13.7 12.4 10.2 7.1 4.3 2.0 0.0 0.0 0.0 0.0 0.0 0.0 0.0 0.0 0.0 0.0 0.0 0.0 0.0 0.0 0.0 0.0 0.0 0.0
16.6 17.1 17.1 19.6 16.9 22.4 19.5 16.4 17.5 19.3 18.3 18.7 19.5 19.1 18.0 17.3 15.0 13.3 13.2 13.9 13.4 12.5 11.0 8.3 4.9 2.7 0.0 0.0 0.0 0.0 0.0 0.0 0.0 0.0 0.0 0.0 0.0 0.0 0.0 0.0 0.0 0.0 0.0 0.0
13.7 16.0 19.5 20.7 19.7 17.7 17.1 18.7 19.2 20.5 19.6 17.3 19.4 18.5 17.5 16.1 14.5 13.8 12.9 12.6 12.6 11.2 10.1 7.6 4.8 3.0 0.3 0.0 0.0 0.0 0.0 0.0 0.0 0.0 0.0 0.0 0.0 0.0 0.0 0.0 0.0 0.0 0.0 0.0
13.3 14.3 17.0 19.0 21.7 23.4 20.8 16.4 14.2 15.1 20.8 16.2 18.0 18.3 17.7 15.9 18.5 17.0 13.2 12.0 12.0 10.5 9.6 7.9 5.1 4.5 0.5 0.0 0.0 0.0 0.0 0.0 0.0 0.0 0.0 0.0 0.0 0.0 0.0 0.0 0.0 0.0 0.0 0.0
18.8 18.8 20.2 19.2 20.5 19.9 17.2 15.4 13.2 21.9 21.8 17.3 17.5 17.5 17.2 17.3 16.1 13.6 11.7 11.6 11.0 9.6 8.5 6.2 5.7 4.2 2.6 0.0 0.0 0.0 0.0 0.0 0.0 0.0 0.0 0.0 0.0 0.0 0.0 0.0 0.0 0.0 0.0 0.0
21.9 22.2 20.1 19.0 21.2 22.7 14.9 15.6 20.9 18.8 16.5 17.0 16.6 16.4 16.2 14.8 13.6 12.7 11.5 12.1 12.0 11.4 9.2 7.8 7.0 4.6 3.7 0.0 0.0 0.0 0.0 0.0 0.0 0.0 0.0 0.0 0.0 0.0 0.0 0.0 0.0 0.0 0.0 0.0
20.9 20.7 21.0 20.3 18.1 14.0 14.3 16.1 13.5 14.5 16.9 16.8 16.7 15.6 14.4 14.7 13.9 12.6 12.6 11.9 11.3 11.2 9.9 8.1 8.7 6.9 3.8 2.2 0.0 0.0 0.0 0.0 0.0 0.0 0.0 0.0 0.0 0.0 0.0 0.0 0.0 0.0 0.0 0.0
20.0 19.6 20.4 20.2 17.3 16.9 15.4 13.9 13.2 13.9 15.8 15.2 14.2 13.6 13.6 14.9 13.7 13.2 12.7 12.6 12.2 11.0 11.9 9.6 9.9 9.2 6.6 4.6 1.7 0.0 0.0 0.0 0.0 0.0 0.0 0.0 0.0 0.0 0.0 0.0 0.0 0.0 0.0 0.0
19.3 20.0 21.0 19.6 17.0 16.6 14.7 14.2 14.8 15.2 14.7 14.2 12.4 12.9 14.0 14.0 13.5 13.4 13.4 12.8 12.0 11.6 12.0 10.7 11.9 10.2 9.0 7.1 5.3 2.6 0.2 0.0 0.0 0.0 0.0 0.0 0.0 0.0 0.0 0.0 0.0 0.0 0.0 0.0
18.7 21.3 20.6 19.7 17.3 19.0 18.2 15.1 15.1 16.7 15.6 13.9 14.0 14.0 13.1 13.7 14.1 13.2 13.3 12.2 12.1 12.5 12.5 12.4 12.3 12.2 10.7 8.9 7.5 6.1 4.6 2.7 1.3 0.0 0.0 0.0 0.0 0.0 0.1 0.3 0.6 0.0 0.0 0.0